EW7149 Weather Reports


Display with metric or nautical units.
time (UTC)temp
F
wind
direction
speed
MPH
gust
MPH
rain 1hr
in
rain 24hr
in
rain mn
in
humidity
%
barometer
mb
20260503021403 48 295 0.0 0.0 0.00 0.03 0.02 59 1013.8
20260503020913 48 287 0.0 0.0 0.00 0.03 0.02 59 1013.8
20260503020404 49 317 0.0 1.0 0.00 0.03 0.02 58 1013.7
20260503015910 49 311 0.0 0.0 0.00 0.03 0.02 58 1013.7
20260503015358 49 351 0.0 0.0 0.00 0.03 0.02 58 1013.7
20260503014840 49 355 0.0 0.0 0.00 0.03 0.02 58 1013.7
20260503014328 49 37 0.0 0.0 0.00 0.03 0.02 57 1013.6
20260503013811 50 68 0.0 0.0 0.00 0.03 0.02 56 1013.6
20260503013305 50 5 0.0 0.0 0.00 0.03 0.02 56 1013.6
20260503012747 50 238 0.0 8.0 0.00 0.03 0.02 55 1013.5
20260503012229 50 312 0.0 0.0 0.00 0.03 0.02 55 1013.4
20260503011059 50 308 0.0 0.0 0.00 0.03 0.02 54 1013.3
20260503005918 50 301 0.0 10.0 0.00 0.03 0.02 55 1013.1
20260503005425 50 256 0.0 0.0 0.00 0.03 0.02 54 1013.0
20260503004920 50 256 0.0 0.0 0.00 0.03 0.02 54 1012.9
20260503004427 50 286 0.0 0.0 0.00 0.03 0.02 54 1012.8
20260503003922 51 236 0.0 0.0 0.00 0.03 0.02 54 1012.7
20260503003420 51 280 0.0 0.0 0.00 0.03 0.02 53 1012.6
20260503002905 51 306 0.0 0.0 0.00 0.03 0.02 53 1012.6
20260503002414 51 306 0.0 0.0 0.00 0.03 0.02 53 1012.5
20260503001902 51 306 0.0 0.0 0.00 0.03 0.02 52 1012.5
20260503001408 51 306 0.0 0.0 0.00 0.03 0.02 52 1012.4
20260503000858 51 308 0.0 0.0 0.00 0.03 0.02 51 1012.4
20260503000353 52 310 0.0 0.0 0.00 0.03 0.02 51 1012.3
20260502235838 52 281 0.0 0.0 0.00 0.03 0.02 51 1012.3
20260502234719 52 277 0.0 0.0 0.00 0.03 0.02 51 1012.2
20260502234201 52 287 0.0 0.0 0.00 0.03 0.02 50 1012.1
20260502233704 53 273 0.0 0.0 0.00 0.03 0.02 50 1012.1
20260502233157 53 264 0.0 0.0 0.00 0.03 0.02 50 1012.0
20260502232646 53 280 0.0 0.0 0.00 0.03 0.02 50 1012.1
20260502232132 53 261 0.0 0.0 0.00 0.03 0.02 50 1012.0
20260502231623 53 253 0.0 0.0 0.00 0.03 0.02 49 1012.1
20260502231132 53 319 0.0 0.0 0.00 0.03 0.02 50 1012.0
20260502230623 53 29 0.0 0.0 0.00 0.03 0.02 49 1011.9
20260502230106 53 286 0.0 0.0 0.00 0.03 0.02 48 1011.9
20260502224959 53 323 0.0 3.0 0.00 0.03 0.02 50 1011.9
20260502224506 53 223 0.0 2.0 0.00 0.03 0.02 49 1011.8
20260502223952 54 250 0.0 0.0 0.00 0.03 0.02 48 1011.8
20260502223456 54 263 0.0 0.0 0.00 0.03 0.02 48 1011.8
20260502222958 54 302 0.0 0.0 0.00 0.03 0.02 47 1011.8
20260502222451 54 277 0.0 0.0 0.00 0.03 0.02 48 1011.8
20260502221940 54 265 0.0 0.0 0.00 0.03 0.02 49 1011.8
20260502221444 54 317 0.0 0.0 0.00 0.03 0.02 47 1011.8
20260502220951 54 234 0.0 7.0 0.00 0.03 0.02 47 1011.8
20260502220459 54 69 0.0 2.0 0.00 0.03 0.02 46 1011.7
20260502215328 55 262 0.0 0.0 0.00 0.03 0.02 46 1011.9
20260502214821 55 300 0.0 4.0 0.00 0.03 0.02 46 1011.8
20260502213708 55 279 0.0 0.0 0.00 0.03 0.02 45 1011.8
20260502213155 55 279 0.0 0.0 0.00 0.03 0.02 45 1011.7
20260502212646 55 0 0.0 5.0 0.00 0.03 0.02 44 1011.6
20260502212152 55 286 0.0 4.0 0.00 0.03 0.02 43 1011.6
20260502211643 55 154 0.0 0.0 0.00 0.03 0.02 44 1011.5
20260502211141 55 294 0.0 1.0 0.00 0.03 0.02 44 1011.5
20260502210650 55 284 0.0 0.0 0.00 0.03 0.02 45 1011.4
20260502210200 55 284 0.0 0.0 0.00 0.03 0.02 46 1011.5
20260502205700 55 285 0.0 0.0 0.00 0.03 0.02 46 1011.3
20260502205150 55 288 0.0 0.0 0.00 0.03 0.02 43 1011.3
20260502204633 56 313 0.0 4.0 0.00 0.03 0.02 44 1011.3
20260502204123 56 276 0.0 0.0 0.00 0.03 0.02 44 1011.2
20260502203022 56 313 0.0 3.0 0.00 0.03 0.02 45 1011.3
20260502202517 56 269 0.0 1.0 0.00 0.03 0.02 44 1011.3
20260502202006 56 304 0.0 0.0 0.00 0.03 0.02 43 1011.3
20260502201501 56 287 0.0 0.0 0.00 0.03 0.02 43 1011.3
20260502200943 57 234 0.0 1.0 0.00 0.03 0.02 44 1011.3
20260502195200 57 304 0.0 1.0 0.00 0.03 0.02 43 1011.4
20260502194642 57 297 0.0 3.0 0.00 0.03 0.02 41 1011.5
20260502194131 58 355 0.0 0.0 0.00 0.03 0.02 41 1011.6
20260502193635 58 186 0.0 6.0 0.00 0.03 0.02 42 1011.7
20260502193139 58 296 0.0 0.0 0.00 0.03 0.02 41 1011.8
20260502192648 58 288 0.0 3.0 0.00 0.03 0.02 43 1012.0
20260502192152 58 296 0.0 0.0 0.00 0.03 0.02 43 1011.9
20260502191658 58 281 0.0 2.0 0.00 0.03 0.02 45 1012.1
20260502191151 58 286 0.0 0.0 0.00 0.03 0.02 42 1012.2
20260502190015 58 103 0.0 1.0 0.00 0.03 0.02 44 1012.3
20260502185520 57 294 0.0 6.0 0.00 0.03 0.02 44 1012.4
20260502184332 57 312 0.0 0.0 0.00 0.03 0.02 42 1012.6
20260502183841 57 296 0.0 0.0 0.00 0.03 0.02 43 1012.6
20260502183331 57 156 0.0 0.0 0.00 0.03 0.02 49 1012.6
20260502182821 56 252 0.0 6.0 0.00 0.03 0.02 44 1012.6
20260502182322 56 258 0.0 2.0 0.00 0.03 0.02 43 1012.7
20260502181158 57 289 0.0 0.0 0.00 0.03 0.02 42 1012.9
20260502180653 57 314 0.0 0.0 0.00 0.03 0.02 44 1012.8
20260502180134 58 246 0.0 1.0 0.00 0.03 0.02 42 1012.9
20260502164114 57 240 0.0 1.0 0.00 0.03 0.02 44 1013.4
20260502163623 57 332 0.0 1.0 0.00 0.03 0.02 48 1013.4
20260502162441 57 302 0.0 5.0 0.00 0.03 0.02 46 1013.5
20260502161928 57 338 0.0 2.0 0.00 0.03 0.02 49 1013.5
20260502161414 56 245 0.0 0.0 0.00 0.03 0.02 51 1013.5
20260502160855 56 277 0.0 0.0 0.00 0.03 0.02 52 1013.6
20260502160340 55 40 0.0 8.0 0.00 0.03 0.02 50 1013.7
20260502152010 54 301 0.0 5.0 0.00 0.03 0.02 55 1014.0
20260502151457 54 291 0.0 0.0 0.00 0.03 0.02 57 1014.0
20260502150959 53 283 0.0 3.0 0.00 0.03 0.02 57 1013.8
20260502150506 53 306 0.0 0.0 0.00 0.03 0.02 57 1013.8
20260502130630 47 267 0.0 1.0 0.00 0.03 0.02 49 1013.8
20260502130134 47 26 0.0 2.0 0.00 0.03 0.02 48 1013.7
20260502123616 45 300 0.0 0.0 0.00 0.03 0.02 45 1013.8
20260502123102 45 279 0.0 6.0 0.00 0.03 0.02 44 1013.9
20260502122545 45 209 0.0 8.0 0.00 0.03 0.02 44 1013.7
20260502122051 45 269 0.0 1.0 0.00 0.03 0.02 41 1013.6
20260502121044 45 27 0.0 1.0 0.00 0.03 0.02 40 1013.6
20260502120532 45 261 0.0 0.0 0.00 0.03 0.02 39 1013.6
20260502115542 45 296 0.0 0.0 0.00 0.03 0.02 35 1013.4
20260502115028 45 28 0.0 7.0 0.00 0.03 0.02 33 1013.5
20260502114537 45 295 0.0 0.0 0.00 0.03 0.02 31 1013.7
20260502114029 45 236 0.0 10.0 0.00 0.03 0.02 27 1013.8
20260502113540 45 239 0.0 0.0 0.00 0.03 0.02 25 1013.8
20260502113029 45 302 0.0 0.0 0.00 0.03 0.02 24 1013.8
20260502112042 45 282 0.0 0.0 0.00 0.03 0.02 22 1013.7
20260502111536 45 296 0.0 3.0 0.00 0.03 0.02 19 1013.7
20260502111039 45 350 0.0 0.0 0.00 0.03 0.02 19 1013.4
20260502110544 45 315 0.0 6.0 0.00 0.03 0.02 19 1013.5
20260502110035 45 300 0.0 5.0 0.00 0.03 0.02 18 1013.5
20260502105517 45 317 0.0 8.0 0.00 0.03 0.02 19 1013.4
20260502105016 45 289 0.0 0.0 0.00 0.03 0.02 18 1013.2
20260502104524 45 297 0.0 6.0 0.00 0.03 0.02 19 1013.2
20260502104005 45 256 0.0 0.0 0.00 0.03 0.02 20 1013.2
20260502102944 45 242 0.0 0.0 0.00 0.03 0.02 23 1013.0
20260502101937 45 296 0.0 3.0 0.00 0.03 0.02 26 1013.2
20260502100924 46 96 0.0 0.0 0.00 0.03 0.02 27 1013.1
20260502090806 47 243 0.0 0.0 0.00 0.03 0.02 34 1012.8
20260502090307 47 294 0.0 6.0 0.00 0.03 0.02 34 1012.7
20260502071526 48 290 0.0 2.0 0.00 0.02 0.01 1 1012.3
20260502071029 48 234 0.0 0.0 0.00 0.02 0.01 1 1012.3
20260502070516 48 309 0.0 0.0 0.00 0.02 0.01 1 1012.3
20260502070011 48 250 0.0 0.0 0.00 0.02 0.01 1 1012.2
20260502065502 48 263 0.0 0.0 0.00 0.02 0.01 1 1012.1
20260502064945 48 274 0.0 0.0 0.00 0.02 0.01 1 1012.2
20260502064433 48 274 0.0 0.0 0.00 0.02 0.01 1 1012.2
20260502063941 48 274 0.0 0.0 0.00 0.02 0.01 1 1012.3
20260502063425 48 274 0.0 0.0 0.00 0.02 0.01 1 1012.3
20260502062433 49 274 0.0 0.0 0.00 0.02 0.01 1 1012.4
20260502061932 49 274 0.0 0.0 0.00 0.02 0.01 1 1012.7
20260502061440 49 275 0.0 0.0 0.00 0.02 0.01 1 1012.6
20260502060948 49 276 0.0 0.0 0.00 0.02 0.01 1 1012.7
20260502060433 49 276 0.0 0.0 0.00 0.02 0.01 1 1012.6
20260502055930 49 276 0.0 0.0 0.00 0.02 0.01 1 1012.6
20260502055436 49 276 0.0 0.0 0.00 0.02 0.01 1 1012.8
20260502054941 49 276 0.0 0.0 0.00 0.02 0.01 1 1012.7
20260502054443 49 276 0.0 0.0 0.00 0.02 0.01 1 1012.8
20260502053933 50 276 0.0 0.0 0.00 0.02 0.01 1 1012.8
20260502052932 50 276 0.0 0.0 0.00 0.02 0.01 1 1012.9
20260502052422 50 276 0.0 0.0 0.00 0.02 0.01 1 1012.8
20260502051905 50 276 0.0 0.0 0.00 0.02 0.01 1 1012.8
20260502050321 51 277 0.0 0.0 0.00 0.02 0.01 1 1012.8
20260502045821 51 277 0.0 0.0 0.00 0.02 0.01 1 1012.8
20260502045305 51 292 0.0 0.0 0.00 0.02 0.01 1 1012.6
20260502044309 51 292 0.0 0.0 0.00 0.02 0.01 1 1012.7
20260502043807 52 292 0.0 0.0 0.00 0.02 0.01 1 1012.6
20260502042802 52 292 0.0 0.0 0.00 0.02 0.01 1 1012.5
20260502042248 52 292 0.0 0.0 0.00 0.02 0.01 1 1012.6
20260502041743 52 292 0.0 0.0 0.00 0.01 0.00 1 1012.6
20260502041245 52 292 0.0 0.0 0.00 0.01 0.00 1 1012.7
20260502040748 53 292 0.0 0.0 0.00 0.01 0.00 1 1012.7
20260502040237 53 292 0.0 0.0 0.00 0.01 0.00 1 1012.5
20260502035739 53 292 0.0 0.0 0.00 0.01 0.01 2 1012.7
20260502035231 53 292 0.0 0.0 0.00 0.01 0.01 7 1012.7
20260502034723 54 344 0.0 0.0 0.00 0.01 0.01 16 1012.5
20260502033722 54 240 0.0 0.0 0.00 0.01 0.01 29 1012.4
20260502032705 54 240 0.0 0.0 0.00 0.00 0.01 38 1012.3
20260502032157 55 240 0.0 0.0 0.00 0.00 0.00 42 1012.2
20260502031639 55 255 0.0 0.0 0.00 0.00 0.00 46 1012.1
20260502031141 55 255 0.0 0.0 0.00 0.00 0.00 50 1012.0
20260502030636 55 255 0.0 0.0 0.00 0.00 0.00 51 1011.9
20260502030129 55 255 0.0 0.0 0.00 0.00 0.00 54 1011.8
20260502025615 55 256 0.0 0.0 0.00 0.00 0.00 55 1011.6
20260502025102 56 256 0.0 0.0 0.00 0.00 0.00 54 1011.7
20260502024605 56 256 0.0 0.0 0.00 0.00 0.00 54 1011.8
20260502024047 56 256 0.0 0.0 0.00 0.00 0.00 55 1011.9
20260502023548 56 256 0.0 0.0 0.00 0.00 0.00 56 1011.8
20260502023051 56 256 0.0 0.0 0.00 0.00 0.00 57 1011.9
20260502022548 56 256 0.0 0.0 0.00 0.00 0.00 58 1012.1
20260502022050 56 155 0.0 0.0 0.00 0.00 0.00 57 1012.1